This is the latest recevied weather packets stored in our database for station/object FW0690. If no packets are shown the sender has not sent any weather packets the latest 10 day(s).
| Time | Temp. | Humidity | Pressure | Rain* | Wind** | Luminosity | Snow |
|---|---|---|---|---|---|---|---|
| 1777890758 | 25.56° C | 23% | 1014.3 hPa | - | - | 58 W/m² | - |
| 1777890398 | 25.56° C | 24% | 1014.4 hPa | - | - | 63 W/m² | - |
| 1777890038 | 25° C | 24% | 1014.4 hPa | - | - | 61 W/m² | - |
| 1777889679 | 24.44° C | 23% | 1014.4 hPa | - | - | 58 W/m² | - |
| 1777889678 | 24.44° C | 23% | 1014.4 hPa | - | - | 58 W/m² | - |
| 1777889318 | 24.44° C | 23% | 1014.4 hPa | - | - | 43 W/m² | - |
| 1777888958 | 25° C | 23% | 1014.4 hPa | - | - | 97 W/m² | - |
| 1777888598 | 25° C | 23% | 1014.5 hPa | - | - | 103 W/m² | - |
| 1777888238 | 25° C | 23% | 1014.6 hPa | - | - | 90 W/m² | - |
| 1777887878 | 25° C | 24% | 1014.6 hPa | - | - | 67 W/m² | - |
| 1777887518 | 25° C | 24% | 1014.7 hPa | - | - | 119 W/m² | - |
| 1777887518 | 25° C | 24% | 1014.7 hPa | - | - | 119 W/m² | - |
| 1777887158 | 24.44° C | 24% | 1014.8 hPa | - | - | 77 W/m² | - |
| 1777886798 | 25° C | 25% | 1014.9 hPa | - | - | 42 W/m² | - |
| 1777886438 | 24.44° C | 25% | 1015 hPa | - | - | 40 W/m² | - |
| 1777886078 | 23.89° C | 26% | 1015 hPa | - | - | 35 W/m² | - |
| 1777885718 | 23.33° C | 26% | 1015.1 hPa | - | - | 61 W/m² | - |
| 1777885358 | 23.33° C | 26% | 1015.1 hPa | - | - | 38 W/m² | - |
| 1777884998 | 22.78° C | 27% | 1015.1 hPa | - | - | 72 W/m² | - |
| 1777884638 | 22.78° C | 27% | 1015 hPa | - | - | 54 W/m² | - |
| 1777884278 | 22.22° C | 27% | 1015 hPa | - | - | 27 W/m² | - |
| 1777883918 | 21.67° C | 28% | 1015.1 hPa | - | - | 24 W/m² | - |
| 1777883558 | 21.11° C | 28% | 1015.1 hPa | - | - | 25 W/m² | - |
| 1777883198 | 21.67° C | 28% | 1015.1 hPa | - | - | 26 W/m² | - |
| 1777882838 | 21.67° C | 29% | 1015.1 hPa | - | - | 26 W/m² | - |
* Rain since midnight (hover to see other rain measurements)
** Current wind speed in m/s (hover to see current wind gust speed)